Wind_Speed
4 4 4 4 4 4 4 4 4 4 5 5 5 5 5 6 6 6 6 6 6 6 5 4 4 4 4 4 4 4 4 4 4 5 5 6 7 8 8 9 9 9 10
4 4 4 3 3 3 3 4 4 4 5 5 5 6 6 6 6 6 6 6 7 7 7 6 5 5 5 4 4 4 5 5 5 5 6 6 7 8 8 8 9 9 9
3 3 3 3 3 3 4 4 4 4 5 5 6 6 7 6 6 6 6 6 6 6 7 7 6 5 5 5 5 5 5 5 5 6 6 6 6 7 8 8 9 9 9
3 2 2 2 2 2 3 3 4 4 4 5 6 7 8 7 7 7 6 6 7 7 7 7 7 6 6 6 6 6 5 5 5 6 6 6 5 6 7 7 8 9 9
2 2 2 2 2 2 3 3 3 3 4 5 6 7 7 7 7 7 7 7 7 7 7 8 8 8 7 7 6 5 5 6 6 6 6 6 6 7 7 7 8 8 8
2 2 2 2 2 3 3 3 2 3 4 4 5 6 7 7 7 8 7 7 7 7 8 8 9 9 8 8 7 7 7 7 7 7 7 6 6 7 7 7 8 8 8
2 2 2 2 2 3 3 3 3 3 3 4 5 6 6 7 7 7 7 8 8 8 8 9 9 9 9 8 8 8 8 8 7 7 7 7 7 7 7 7 8 8 9
1 1 1 2 2 3 3 3 3 4 4 5 5 6 7 7 7 8 8 8 8 8 9 9 9 9 9 9 9 9 9 9 8 7 7 7 8 8 7 8 8 8 9
1 1 2 2 2 3 3 4 4 4 5 5 5 6 7 8 8 8 8 8 8 8 9 9 9 9 10 10 10 10 10 9 9 8 8 9 9 9 9 9 9 9 10
2 3 3 4 4 4 4 5 5 5 5 5 6 7 8 8 8 9 8 8 8 9 9 9 9 9 10 11 11 11 10 10 9 9 9 9 9 9 10 10 11 11 11
4 5 5 5 5 5 5 6 5 6 6 6 7 7 8 7 8 9 9 9 9 9 9 10 10 10 10 10 11 11 11 11 10 10 10 10 10 10 11 11 11 12 12
5 6 7 7 7 7 6 7 7 7 7 7 7 8 8 8 9 10 10 10 10 10 10 10 11 11 11 11 12 12 12 12 12 12 12 11 11 12 12 12 12 13 13
7 7 8 8 8 8 8 8 8 9 9 9 9 9 9 9 10 10 10 10 10 11 11 11 12 12 12 13 13 13 13 14 14 13 13 13 13 13 13 13 14 14 14
8 8 8 8 9 9 9 9 10 10 10 11 10 10 10 11 11 11 11 11 12 12 12 12 13 13 14 14 14 14 14 14 14 14 14 14 15 14 14 14 15 15 15
9 9 9 9 10 10 11 11 12 12 12 12 12 12 12 12 12 12 12 13 13 13 14 14 15 15 16 16 16 16 16 16 16 16 16 16 16 16 16 16 16 16 17
9 10 10 11 11 11 12 12 12 12 12 12 13 13 14 14 14 14 15 15 15 15 16 16 17 17 17 18 18 18 17 17 17 17 18 18 18 18 18 18 18 18 18
11 11 12 12 12 13 13 13 13 14 14 14 15 15 16 16 17 17 17 18 18 18 18 19 19 20 20 20 20 20 20 20 20 19 20 20 20 20 20 20 20 20 20
13 14 14 14 15 15 15 15 16 15 16 16 16 17 17 17 18 19 19 19 20 21 21 20 21 22 22 22 22 22 22 22 22 22 22 22 22 22 22 21 22 22 22
15 15 16 17 17 17 17 17 18 18 18 18 18 19 19 19 20 21 21 21 22 22 22 23 23 23 24 24 24 24 24 24 24 25 25 24 24 24 24 24 24 24 24
17 17 18 19 19 19 19 19 20 20 20 20 20 21 21 21 22 23 23 23 24 24 24 25 25 25 25 25 26 25 25 26 26 26 27 27 26 26 26 26 26 26 26
19 20 20 20 20 20 20 21 22 22 23 23 23 23 23 23 24 24 25 26 26 26 26 26 26 26 26 26 27 26 26 26 26 27 27 27 27 28 28 28 28 28 28
20 20 21 21 21 21 22 22 23 23 24 24 24 24 25 25 25 26 27 27 27 27 27 27 27 27 27 27 27 27 27 27 27 27 28 29 29 29 29 30 29 30 30
21 21 22 22 22 22 23 23 23 23 24 24 25 25 26 27 27 28 28 28 29 29 29 29 29 28 28 28 29 29 28 29 29 29 29 29 29 29 30 30 30 30 30
23 22 23 23 24 24 24 24 24 24 25 26 27 28 28 29 29 29 29 30 30 30 30 29 29 29 29 29 30 30 30 31 31 31 31 30 30 30 30 31 31 31 31
23 23 23 24 25 26 27 27 27 28 28 28 29 29 29 29 29 30 31 31 31 31 30 30 30 30 30 30 30 31 31 32 31 31 32 31 31 31 32 32 32 32 32
25 25 26 26 27 28 29 29 30 30 30 30 30 30 31 31 31 32 32 32 32 31 31 31 31 31 31 31 31 31 31 31 32 32 32 32 33 33 33 33 34 34 33
Wind_Direction
116 116 107 97 84 70 62 51 52 41 36 32 28 22 21 18 16 17 17 20 21 17 7 360 350 339 328 324 321 319 312 308 298 288 283 279 272 269 261 259 263 263 261
119 107 96 89 83 69 53 52 51 43 41 38 34 28 20 13 12 10 13 20 20 16 14 10 2 352 346 340 331 325 319 312 306 304 295 290 282 272 265 260 261 265 264
119 101 94 82 72 62 52 52 48 47 48 43 40 32 24 21 17 15 20 20 17 15 17 15 8 1 352 344 334 326 323 318 312 309 305 299 287 279 270 262 261 263 266
117 101 87 73 60 47 37 40 35 43 47 43 38 35 31 25 19 18 20 16 14 14 14 10 5 360 350 339 326 319 317 313 306 308 306 300 292 288 279 268 268 269 272
120 116 97 71 46 31 34 31 32 44 43 33 28 26 22 17 15 16 15 12 11 9 6 4 3 359 351 343 333 324 318 314 310 309 306 301 297 292 287 280 277 276 275
117 107 85 57 39 26 23 22 39 41 26 19 14 14 12 8 9 11 10 8 7 6 4 1 357 354 353 350 344 333 327 325 320 317 315 310 303 298 289 283 277 276 274
111 88 74 47 18 14 14 8 21 17 5 2 4 4 2 2 5 6 7 3 0 358 356 356 355 353 352 349 346 338 331 326 322 321 320 317 313 305 297 287 281 275 271
136 74 60 26 5 2 359 344 345 347 343 344 348 347 347 351 355 359 358 355 356 356 354 353 354 354 353 350 345 339 334 330 325 324 320 315 312 308 305 298 289 281 275
259 306 305 309 326 337 337 331 330 328 332 331 333 338 342 345 345 347 349 349 349 350 349 350 349 349 350 348 346 341 338 332 327 323 319 313 309 304 303 303 297 288 280
275 285 286 295 301 310 320 316 315 318 317 318 323 328 332 335 337 338 341 344 346 346 346 345 345 345 346 346 343 342 336 334 327 322 317 313 309 305 299 301 299 294 287
275 284 288 290 291 295 305 307 310 311 312 312 312 319 326 329 327 331 332 333 335 338 339 338 339 340 340 339 338 338 336 332 325 319 314 309 307 302 299 296 296 295 290
280 285 289 289 289 289 297 304 314 311 306 306 308 310 315 321 321 321 320 321 324 327 330 332 333 335 336 334 333 331 330 328 324 318 315 308 305 303 299 297 295 294 290
285 288 288 288 289 290 296 303 304 308 308 305 304 306 309 313 313 313 313 314 315 317 320 323 325 327 328 329 326 324 323 321 320 318 313 308 305 304 300 297 295 293 291
286 290 290 289 291 291 291 294 300 302 303 303 299 302 306 306 306 308 308 307 308 309 310 312 316 320 322 321 319 317 317 316 315 314 313 309 305 304 301 298 297 295 292
285 285 287 288 288 291 293 295 297 298 296 295 295 297 299 301 301 298 298 300 300 301 304 305 307 309 312 313 314 311 311 309 308 307 308 308 306 303 300 298 297 294 292
282 282 284 285 287 292 294 294 295 296 294 292 291 292 294 293 294 293 291 293 295 296 297 298 300 301 304 306 308 309 308 306 306 305 304 303 305 304 301 298 295 294 293
281 281 282 284 285 289 291 291 292 290 287 287 289 291 292 293 292 294 292 289 289 291 292 293 295 296 297 299 301 302 303 302 301 301 301 300 299 299 298 296 295 294 293
283 282 283 285 285 288 290 289 288 289 286 286 288 291 292 292 293 293 293 292 289 289 291 292 293 294 295 295 295 297 298 299 299 299 298 298 296 295 294 293 293 292 291
283 284 285 285 286 287 288 287 287 287 286 285 286 289 289 290 291 292 293 293 292 291 291 292 292 293 294 295 295 296 298 299 298 297 297 296 295 292 291 290 290 290 289
285 287 286 288 287 288 289 288 287 287 286 287 288 288 288 288 289 290 291 291 291 291 291 291 290 291 291 292 294 294 296 297 297 297 296 296 295 293 291 291 290 290 290
286 287 288 290 290 290 290 289 288 288 287 287 287 287 288 290 290 290 290 290 291 291 291 291 291 291 291 291 292 292 293 294 296 296 295 294 294 293 292 290 290 290 290
287 287 288 289 290 290 291 290 289 288 288 288 289 287 287 288 290 291 292 291 292 291 291 289 289 290 291 291 291 290 291 292 295 295 295 295 295 294 293 292 291 290 289
286 288 288 289 289 290 292 293 292 291 290 289 289 289 289 289 290 291 291 292 291 290 290 288 287 290 289 289 289 289 290 291 292 294 295 296 296 295 294 293 293 291 290
288 289 289 289 289 290 292 292 292 293 292 291 290 289 290 290 290 291 292 294 293 291 290 288 288 289 290 290 290 291 291 292 292 293 294 294 294 295 295 294 292 291 291
288 288 289 288 288 289 290 290 292 293 292 292 291 290 291 291 292 292 293 294 294 292 290 288 289 290 289 291 291 291 292 292 293 294 292 292 292 294 295 294 293 291 290
287 287 287 288 287 288 289 292 292 293 291 292 292 291 291 291 291 293 293 293 293 291 289 288 288 289 289 289 290 290 292 293 293 293 292 292 294 293 292 292 293 292 290
Height
5903 5903 5903 5903 5903 5902 5902 5901 5900 5900 5899 5898 5896 5895 5894 5893 5892 5890 5889 5888 5886 5885 5884 5884 5883 5883 5882 5882 5881 5881 5880 5880 5879 5879 5879 5878 5878 5878 5878 5879 5879 5879 5879
5904 5904 5904 5904 5903 5903 5902 5902 5901 5900 5899 5898 5897 5896 5895 5893 5892 5891 5890 5888 5887 5886 5885 5884 5883 5883 5882 5881 5881 5880 5880 5879 5879 5878 5878 5877 5877 5877 5877 5877 5877 5877 5877
5905 5905 5905 5904 5904 5903 5903 5902 5902 5901 5900 5899 5898 5897 5895 5894 5893 5892 5890 5889 5888 5887 5886 5885 5884 5883 5882 5881 5880 5880 5879 5878 5878 5877 5877 5876 5876 5875 5875 5875 5875 5875 5875
5905 5905 5905 5905 5904 5904 5903 5903 5902 5901 5901 5900 5899 5897 5896 5895 5893 5892 5891 5890 5888 5887 5886 5885 5884 5883 5882 5880 5879 5879 5878 5878 5877 5876 5876 5875 5874 5874 5873 5873 5873 5873 5873
5906 5906 5906 5905 5905 5904 5904 5903 5902 5902 5901 5900 5899 5898 5897 5896 5894 5893 5891 5890 5889 5887 5886 5885 5884 5883 5881 5880 5879 5878 5877 5876 5876 5875 5874 5874 5873 5872 5872 5871 5871 5871 5871
5907 5906 5906 5906 5905 5905 5904 5903 5903 5902 5901 5900 5899 5899 5897 5896 5895 5893 5892 5890 5889 5887 5886 5885 5884 5882 5881 5879 5878 5877 5876 5875 5874 5874 5873 5872 5871 5870 5870 5869 5869 5869 5869
5907 5906 5906 5906 5905 5905 5904 5904 5903 5902 5901 5901 5900 5899 5897 5896 5895 5893 5892 5891 5889 5887 5886 5884 5883 5882 5880 5879 5877 5876 5875 5874 5873 5872 5871 5870 5870 5869 5868 5868 5867 5867 5867
5907 5907 5906 5906 5906 5905 5904 5904 5903 5902 5901 5900 5900 5899 5898 5897 5895 5893 5892 5890 5889 5887 5886 5884 5883 5881 5879 5878 5876 5875 5874 5872 5871 5870 5870 5869 5868 5867 5866 5865 5865 5864 5864
5907 5907 5906 5906 5905 5905 5904 5903 5902 5902 5901 5900 5899 5898 5897 5896 5894 5893 5891 5890 5889 5887 5885 5884 5882 5881 5879 5877 5875 5874 5872 5871 5870 5869 5868 5867 5866 5865 5864 5863 5863 5862 5862
5907 5906 5906 5905 5905 5904 5904 5903 5902 5901 5900 5899 5898 5897 5896 5895 5894 5892 5891 5890 5888 5886 5885 5883 5882 5880 5878 5876 5874 5873 5871 5870 5869 5867 5866 5865 5864 5863 5862 5861 5860 5859 5859
5906 5905 5905 5904 5904 5903 5903 5902 5901 5900 5899 5898 5897 5896 5895 5894 5893 5891 5890 5889 5887 5886 5884 5882 5881 5879 5877 5875 5873 5872 5870 5868 5867 5865 5864 5863 5862 5861 5859 5858 5858 5857 5856
5905 5904 5904 5903 5902 5902 5901 5901 5900 5899 5898 5897 5896 5895 5894 5893 5892 5890 5888 5887 5886 5885 5883 5881 5879 5878 5876 5874 5872 5870 5868 5866 5865 5863 5862 5860 5859 5858 5857 5856 5855 5854 5853
5904 5903 5902 5902 5901 5901 5900 5899 5898 5898 5896 5895 5894 5893 5892 5891 5890 5889 5887 5885 5884 5883 5881 5880 5878 5876 5874 5872 5870 5868 5866 5865 5863 5861 5859 5858 5856 5855 5853 5852 5851 5851 5850
5902 5902 5901 5900 5900 5899 5898 5897 5896 5895 5894 5893 5892 5891 5890 5889 5888 5886 5885 5884 5882 5881 5879 5877 5876 5874 5872 5870 5868 5866 5864 5862 5860 5858 5856 5855 5853 5852 5850 5849 5847 5847 5846
5901 5900 5899 5898 5898 5897 5896 5895 5894 5893 5892 5891 5890 5889 5888 5886 5885 5884 5882 5881 5880 5878 5877 5875 5873 5871 5869 5867 5865 5863 5861 5859 5857 5855 5853 5851 5850 5848 5847 5845 5844 5842 5841
5898 5898 5897 5896 5895 5894 5893 5892 5891 5890 5888 5887 5886 5885 5884 5883 5881 5880 5879 5878 5876 5875 5873 5872 5870 5868 5866 5864 5862 5859 5857 5855 5853 5851 5849 5847 5846 5844 5842 5841 5840 5838 5837
5896 5895 5894 5893 5892 5891 5890 5889 5888 5886 5885 5884 5883 5882 5880 5879 5878 5876 5875 5873 5872 5870 5869 5868 5866 5863 5861 5859 5857 5855 5853 5850 5849 5847 5845 5843 5841 5839 5837 5836 5835 5833 5832
5893 5892 5891 5890 5889 5888 5887 5885 5884 5883 5881 5880 5879 5878 5876 5875 5873 5872 5870 5868 5867 5865 5864 5863 5861 5858 5856 5854 5852 5850 5847 5845 5843 5841 5839 5837 5835 5834 5832 5830 5829 5827 5826
5890 5889 5887 5886 5885 5884 5882 5881 5880 5878 5877 5876 5874 5873 5871 5870 5868 5867 5865 5863 5861 5860 5858 5857 5855 5853 5850 5848 5846 5844 5842 5839 5837 5835 5833 5831 5829 5827 5825 5824 5822 5821 5819
5885 5884 5883 5882 5880 5879 5877 5876 5875 5873 5872 5870 5869 5868 5866 5865 5863 5861 5859 5857 5855 5854 5852 5850 5848 5846 5844 5842 5840 5838 5836 5833 5831 5828 5826 5824 5822 5820 5818 5817 5815 5814 5812
5880 5879 5878 5876 5875 5874 5872 5871 5869 5868 5866 5865 5863 5862 5860 5859 5857 5855 5853 5851 5849 5847 5845 5843 5841 5839 5837 5835 5833 5831 5828 5826 5824 5821 5819 5817 5815 5813 5811 5809 5807 5806 5804
5875 5874 5872 5871 5870 5868 5867 5865 5863 5862 5861 5859 5857 5855 5854 5852 5850 5849 5846 5844 5842 5840 5838 5836 5834 5832 5830 5827 5825 5823 5821 5819 5817 5815 5812 5809 5807 5805 5803 5801 5799 5797 5795
5870 5868 5867 5865 5864 5863 5861 5859 5857 5856 5854 5853 5851 5849 5847 5845 5843 5841 5839 5837 5835 5832 5830 5828 5826 5824 5822 5820 5817 5815 5813 5810 5808 5806 5804 5801 5799 5796 5794 5792 5791 5789 5787
5864 5862 5861 5859 5858 5856 5855 5853 5851 5849 5848 5846 5844 5842 5840 5838 5835 5833 5831 5829 5826 5824 5821 5819 5817 5815 5813 5811 5809 5807 5804 5802 5799 5797 5795 5792 5790 5788 5786 5784 5782 5780 5778
5858 5856 5854 5853 5851 5850 5848 5846 5844 5842 5841 5839 5836 5834 5832 5830 5827 5824 5822 5820 5817 5814 5812 5810 5808 5806 5804 5802 5800 5798 5795 5793 5791 5788 5786 5784 5781 5779 5777 5775 5772 5770 5768
5851 5849 5847 5846 5844 5842 5841 5839 5837 5835 5833 5830 5828 5826 5824 5821 5819 5816 5813 5811 5808 5806 5803 5801 5799 5797 5795 5793 5791 5789 5786 5784 5781 5780 5777 5775 5772 5770 5768 5765 5762 5760 5758